This is the latest recevied weather packets stored in our database for station/object KD2DXJ. If no packets are shown the sender has not sent any weather packets the latest 10 day(s).
| Time | Temp. | Humidity | Pressure | Rain* | Wind** | Luminosity | Snow |
|---|---|---|---|---|---|---|---|
| 1778156009 | 7.22° C | 64% | 1010.2 hPa | 0 mm | - | 234 W/m² | - |
| 1778155706 | 7.22° C | 63% | 1010.2 hPa | 0 mm | - | 222 W/m² | - |
| 1778155403 | 6.67° C | 66% | 1010.2 hPa | 0 mm | - | 208 W/m² | - |
| 1778155099 | 6.11° C | 66% | 1010.4 hPa | 0 mm | - | 196 W/m² | - |
| 1778154795 | 6.11° C | 68% | 1010.3 hPa | 0 mm | - | 185 W/m² | - |
| 1778154491 | 6.11° C | 72% | 1010 hPa | 0 mm | - | 172 W/m² | - |
| 1778154188 | 6.11° C | 70% | 1010 hPa | 0 mm | - | 160 W/m² | - |
| 1778153885 | 5.56° C | 72% | 1010.4 hPa | 0 mm | - | 149 W/m² | - |
| 1778153582 | 5° C | 74% | 1010.2 hPa | 0 mm | - | 138 W/m² | - |
| 1778153280 | 5° C | 74% | 1010.2 hPa | 0 mm | - | 127 W/m² | - |
| 1778152977 | 5° C | 76% | 1010 hPa | 0 mm | - | 117 W/m² | - |
| 1778152675 | 5° C | 75% | 1010 hPa | 0 mm | - | 108 W/m² | - |
| 1778152371 | 4.44° C | 76% | 1010 hPa | 0 mm | - | 98 W/m² | - |
| 1778152067 | 3.89° C | 79% | 1009.8 hPa | 0 mm | - | 88 W/m² | - |
| 1778151764 | 3.89° C | 78% | 1009.8 hPa | 0 mm | - | 79 W/m² | - |
| 1778151461 | 3.33° C | 82% | 1010 hPa | 0 mm | - | 70 W/m² | - |
| 1778151156 | 3.33° C | 82% | 1009.9 hPa | 0 mm | - | 62 W/m² | - |
| 1778150854 | 2.78° C | 83% | 1009.8 hPa | 0 mm | - | 53 W/m² | - |
| 1778150550 | 2.78° C | 82% | 1009.8 hPa | 0 mm | - | 46 W/m² | - |
| 1778150246 | 2.78° C | 83% | 1009.6 hPa | 0 mm | - | 39 W/m² | - |
| 1778149943 | 2.22° C | 83% | 1009.9 hPa | 0 mm | - | 33 W/m² | - |
| 1778149639 | 2.22° C | 84% | 1009.7 hPa | 0 mm | - | 28 W/m² | - |
| 1778149336 | 2.22° C | 85% | 1009.7 hPa | 0 mm | - | 23 W/m² | - |
| 1778149032 | 2.22° C | 85% | 1009.7 hPa | 0 mm | - | 18 W/m² | - |
| 1778148727 | 1.67° C | 85% | 1009.7 hPa | 0 mm | - | 15 W/m² | - |
* Rain latest hour (hover to see other rain measurements)
** Current wind speed in m/s (hover to see current wind gust speed)